Location: Sungai Lasa
(2.4500°N, 113.4500°E)
Time: 04:41:34
(UTC+00:00)

Cosmos 1939 Rocket - Pass Details

Date: 03 February 2023
Orbit: 526 x 574 km, 97.4° (Epoch: 26 March)

Event Time Altitude Azimuth Distance (km) Brightness Sun altitude
Rises 22:09:42 0° 342° (NNW) 2,646 6.0 -8.0°
Reaches altitude 10° 22:12:29 10° 319° (NW) 1,758 4.9 -7.3°
Maximum altitude 22:14:46 16° 282° (WNW) 1,445 4.3 -6.7°
Drops below altitude 10° 22:17:04 10° 244° (WSW) 1,764 5.0 -6.2°
Sets 22:19:52 0° 221° (SW) 2,658 6.1 -5.5°
